Вернуться в каталог

OPS 4682 DEB

АктивенPO
NORAD 51489·DEBRIS·🇺🇸 United States

Запущен Apr 3, 1965 с Vandenberg Space Force Base

Loading…

Ближайшие Пролёты (ближайшие 24 часа)

TLE

СвежийSource: Space-Track

Эпоха: Sep 13, 2026, 01:01 UTC

1 51489U 65027FZ  26256.04274624  .00000019  00000-0  43332-4 0  9996
2 51489  90.2508   8.9999 0025908  32.4205 327.8499 12.93828793487987

Отслеживайте OPS 4682 DEB в реальном времени с AllMySat

Download on the App Store